Location: Sungai Ketit
(2.6833°N, 113.2333°E)
Time: 20:17:17
(UTC+00:00)

Palapa 6 Rocket - Pass Details

Date: 23 May 2024
Orbit: 482 x 1187 km, 22.7° (Epoch: 19 June)

Event Time Altitude Azimuth Distance (km) Brightness Sun altitude
Rises 10:54:28 0° 248° (WSW) 4,006 8.0 -6.2°
Reaches altitude 10° 10:57:28 10° 249° (WSW) 2,987 7.3 -6.9°
Maximum altitude 11:04:55 81° 335° (NNW) 1,016 4.2 -8.6°
Drops below altitude 10° 11:11:09 10° 63° (ENE) 2,521 5.8 -10.1°
Enters shadow 11:13:22 - 64° (ENE) 3,307 6.4 -10.6°
